�������l�o���
Date,Time,MP-1(��Sv/h),MP-2(��Sv/h),MP-3(��Sv/h),MP-4(��Sv/h),MP-5(��Sv/h),MP-6(��Sv/h),MP-7(��Sv/h),MP-8(��Sv/h),����,����(m/s),���J
2019/06/30,00:00,0.725,1.008,0.699,1.255,0.922,0.421,0.728,0.692,�k�k��,5.0,��
2019/06/30,00:10,0.723,1.009,0.696,1.256,0.920,0.421,0.726,0.691,�k�k��,5.0,��
2019/06/30,00:20,0.725,1.012,0.698,1.255,0.920,0.419,0.728,0.692,�k�k��,3.6,��
2019/06/30,00:30,0.725,1.010,0.698,1.255,0.921,0.420,0.727,0.692,�k�k��,5.5,��
2019/06/30,00:40,0.725,1.009,0.698,1.257,0.920,0.420,0.728,0.692,�k�k��,4.0,��
2019/06/30,00:50,0.724,1.012,0.697,1.257,0.920,0.419,0.728,0.692,�k�k��,5.1,��
2019/06/30,01:00,0.724,1.010,0.698,1.257,0.923,0.421,0.729,0.692,�k�k��,4.7,��
2019/06/30,01:10,0.724,1.012,0.700,1.256,0.922,0.421,0.727,0.695,�k�k��,4.3,��
2019/06/30,01:20,0.723,1.012,0.699,1.258,0.922,0.421,0.728,0.691,�k�k��,3.0,��
2019/06/30,01:30,0.724,1.013,0.699,1.256,0.921,0.421,0.728,0.693,�k,2.3,��
2019/06/30,01:40,0.723,1.013,0.698,1.259,0.923,0.419,0.730,0.693,�k�k��,2.9,��
2019/06/30,01:50,0.726,1.012,0.698,1.258,0.925,0.420,0.728,0.695,�k,2.6,��
2019/06/30,02:00,0.725,1.013,0.698,1.261,0.925,0.420,0.727,0.694,�k,3.5,��
2019/06/30,02:10,0.727,1.013,0.698,1.260,0.922,0.422,0.729,0.693,�k,2.6,��
2019/06/30,02:20,0.725,1.016,0.699,1.260,0.924,0.421,0.728,0.694,�k�k��,2.8,��
2019/06/30,02:30,0.725,1.015,0.698,1.259,0.926,0.419,0.730,0.694,�k,3.5,��
2019/06/30,02:40,0.725,1.016,0.698,1.260,0.925,0.421,0.729,0.694,�k,3.6,��
2019/06/30,02:50,0.727,1.016,0.700,1.261,0.929,0.421,0.729,0.694,�k�k��,3.4,��
2019/06/30,03:00,0.725,1.015,0.697,1.260,0.926,0.421,0.729,0.693,�k�k��,2.6,�L
2019/06/30,03:10,0.727,1.015,0.701,1.259,0.928,0.422,0.729,0.695,�k�k��,2.2,�L
2019/06/30,03:20,0.726,1.015,0.700,1.264,0.927,0.421,0.728,0.696,�k�k��,4.2,�L
2019/06/30,03:30,0.729,1.015,0.701,1.261,0.928,0.424,0.730,0.695,�k�k��,3.3,�L
2019/06/30,03:40,0.727,1.017,0.701,1.264,0.928,0.424,0.729,0.696,�k�k��,3.5,�L
2019/06/30,03:50,0.728,1.016,0.703,1.262,0.929,0.424,0.730,0.695,�k,3.3,�L
2019/06/30,04:00,0.729,1.016,0.705,1.265,0.928,0.425,0.732,0.697,�k�k��,1.5,�L
2019/06/30,04:10,0.729,1.017,0.703,1.260,0.927,0.425,0.731,0.696,�k�k��,1.5,�L
2019/06/30,04:20,0.728,1.016,0.705,1.263,0.929,0.425,0.730,0.693,�k�k��,1.1,�L
2019/06/30,04:30,0.728,1.015,0.701,1.261,0.928,0.424,0.729,0.693,�k�k��,1.4,�L
2019/06/30,04:40,0.728,1.016,0.702,1.262,0.929,0.424,0.729,0.694,�k,1.2,�L
2019/06/30,04:50,0.726,1.017,0.702,1.262,0.928,0.424,0.730,0.693,�k�k��,0.9,�L
2019/06/30,05:00,0.728,1.015,0.703,1.263,0.926,0.424,0.730,0.693,�k�k��,1.4,�L
2019/06/30,05:10,0.728,1.017,0.702,1.263,0.928,0.426,0.730,0.696,�k�k��,1.1,�L
2019/06/30,05:20,0.731,1.016,0.704,1.262,0.927,0.426,0.729,0.694,�k,1.9,�L
2019/06/30,05:30,0.729,1.018,0.703,1.261,0.929,0.426,0.731,0.694,�k,2.0,�L
2019/06/30,05:40,0.728,1.015,0.703,1.261,0.926,0.425,0.731,0.692,�k�k��,4.1,�L
2019/06/30,05:50,0.726,1.011,0.702,1.257,0.924,0.426,0.727,0.693,-,CALM,�L
2019/06/30,06:00,0.726,1.006,0.704,1.253,0.921,0.427,0.730,0.693,�k��,4.7,�L
2019/06/30,06:10,0.725,1.007,0.701,1.250,0.922,0.426,0.727,0.691,�k�k��,3.8,�L
2019/06/30,06:20,0.726,1.007,0.703,1.249,0.921,0.427,0.729,0.693,��,3.2,�L
2019/06/30,06:30,0.727,1.004,0.701,1.243,0.914,0.429,0.726,0.691,�k��,5.0,�L
2019/06/30,06:40,0.727,1.003,0.702,1.241,0.915,0.429,0.725,0.690,�k��,3.8,�L
2019/06/30,06:50,0.726,1.002,0.702,1.241,0.917,0.429,0.724,0.691,�k�k��,2.6,�L
2019/06/30,07:00,0.728,0.999,0.702,1.241,0.917,0.430,0.725,0.690,�k�k��,6.0,�L
2019/06/30,07:10,0.727,1.000,0.702,1.240,0.915,0.432,0.725,0.691,�k��,3.9,�L
2019/06/30,07:20,0.727,1.002,0.704,1.243,0.917,0.430,0.725,0.692,�k��,3.8,�L
2019/06/30,07:30,0.727,1.003,0.703,1.242,0.916,0.433,0.724,0.692,�k,5.4,�L
2019/06/30,07:40,0.728,1.004,0.704,1.242,0.917,0.431,0.724,0.691,�k,3.8,�L
2019/06/30,07:50,0.725,0.999,0.704,1.239,0.911,0.431,0.720,0.688,�k��,2.0,�L
2019/06/30,08:00,0.725,0.994,0.701,1.231,0.906,0.431,0.721,0.688,�k,2.8,�L
2019/06/30,08:10,0.717,0.984,0.696,1.224,0.898,0.429,0.718,0.687,�k�k��,7.8,�L
2019/06/30,08:20,0.719,0.986,0.695,1.217,0.897,0.428,0.719,0.686,�k�k��,1.7,�L
2019/06/30,08:30,0.716,0.982,0.692,1.218,0.892,0.426,0.718,0.686,�k�k��,4.8,�L
2019/06/30,08:40,0.716,0.982,0.689,1.213,0.887,0.427,0.719,0.684,�k�k��,1.5,�L
2019/06/30,08:50,0.714,0.983,0.691,1.216,0.886,0.425,0.718,0.684,�k�k��,4.8,�L
2019/06/30,09:00,0.723,0.995,0.697,1.223,0.891,0.432,0.720,0.688,�k��,2.3,�L
2019/06/30,09:10,0.725,0.996,0.699,1.227,0.892,0.434,0.720,0.689,�k,4.2,�L
2019/06/30,09:20,0.724,1.001,0.699,1.229,0.895,0.436,0.720,0.687,�k,2.6,�L
2019/06/30,09:30,0.725,1.001,0.699,1.231,0.896,0.435,0.720,0.690,�k,3.6,�L
2019/06/30,09:40,0.724,1.002,0.699,1.234,0.895,0.435,0.720,0.687,�k�k��,4.4,�L
2019/06/30,09:50,0.722,1.003,0.699,1.236,0.894,0.434,0.720,0.689,�k,3.3,�L
2019/06/30,10:00,0.721,1.001,0.699,1.235,0.892,0.434,0.720,0.691,�k�k��,3.0,�L
2019/06/30,10:10,0.723,1.001,0.699,1.233,0.892,0.432,0.723,0.689,�k,2.0,�L
2019/06/30,10:20,0.721,1.001,0.695,1.236,0.894,0.432,0.721,0.687,�k�k��,1.7,�L
2019/06/30,10:30,0.720,1.000,0.695,1.234,0.891,0.430,0.721,0.686,�k�k��,1.5,�L
2019/06/30,10:40,0.718,1.002,0.695,1.235,0.889,0.428,0.719,0.683,���k��,5.9,�L
2019/06/30,10:50,0.717,0.998,0.691,1.228,0.881,0.429,0.716,0.685,���쓌,6.3,�L
2019/06/30,11:00,0.717,0.994,0.691,1.224,0.885,0.430,0.716,0.685,�k�k��,3.0,�L
2019/06/30,11:10,0.716,0.993,0.691,1.224,0.883,0.430,0.717,0.686,�k�k��,2.0,�L
2019/06/30,11:20,0.715,0.993,0.692,1.229,0.884,0.432,0.721,0.687,�k,2.8,�L
2019/06/30,11:30,0.715,0.991,0.692,1.227,0.883,0.433,0.718,0.686,�k�k��,2.5,�L
2019/06/30,11:40,0.716,0.992,0.694,1.228,0.884,0.435,0.719,0.683,�k,2.3,�L
2019/06/30,11:50,0.718,0.992,0.692,1.227,0.884,0.435,0.718,0.684,��,0.9,�L
2019/06/30,12:00,0.717,0.989,0.693,1.225,0.879,0.434,0.717,0.684,�k��,1.9,�L
2019/06/30,12:10,0.721,0.992,0.694,1.230,0.883,0.436,0.718,0.684,�k�k��,2.5,�L
2019/06/30,12:20,0.724,0.996,0.695,1.232,0.884,0.437,0.720,0.684,�k�k��,3.5,�L
2019/06/30,12:30,0.723,0.996,0.695,1.230,0.885,0.435,0.719,0.686,�k�k��,3.7,�L
2019/06/30,12:40,0.722,0.998,0.693,1.230,0.883,0.435,0.718,0.685,�k��,3.9,�L
2019/06/30,12:50,0.719,0.997,0.692,1.227,0.880,0.434,0.717,0.683,�k��,3.7,�L
2019/06/30,13:00,0.718,0.995,0.690,1.226,0.878,0.434,0.716,0.683,�k�k��,3.3,�L
2019/06/30,13:10,0.717,0.994,0.689,1.225,0.879,0.433,0.718,0.683,�k�k��,3.0,�L
2019/06/30,13:20,0.717,0.994,0.689,1.230,0.876,0.432,0.716,0.685,�k�k��,3.1,�L
2019/06/30,13:30,0.715,0.994,0.687,1.227,0.878,0.434,0.716,0.684,�k,2.6,�L
2019/06/30,13:40,0.715,0.991,0.685,1.229,0.875,0.431,0.717,0.684,�k�k��,2.6,�L
2019/06/30,13:50,0.713,0.990,0.685,1.225,0.874,0.428,0.717,0.683,�k�k��,3.4,�L
2019/06/30,14:00,0.714,0.992,0.685,1.225,0.877,0.429,0.716,0.684,�k�k��,3.4,�L
2019/06/30,14:10,0.715,0.993,0.684,1.228,0.878,0.429,0.718,0.685,�k�k��,3.6,�L
2019/06/30,14:20,0.715,0.996,0.685,1.231,0.876,0.428,0.719,0.685,�k��,3.8,�L
2019/06/30,14:30,0.713,0.996,0.684,1.231,0.881,0.425,0.719,0.684,�k�k��,3.0,�L
2019/06/30,14:40,0.714,0.995,0.685,1.231,0.880,0.427,0.719,0.685,�k�k��,2.3,�L
2019/06/30,14:50,0.716,0.996,0.684,1.235,0.877,0.425,0.719,0.684,�k�k��,2.3,�L
2019/06/30,15:00,0.713,0.996,0.685,1.234,0.878,0.425,0.720,0.684,�k�k��,2.6,�L
2019/06/30,15:10,0.714,0.997,0.682,1.239,0.877,0.424,0.721,0.684,�k�k��,3.6,�L
2019/06/30,15:20,0.714,0.998,0.685,1.239,0.878,0.422,0.719,0.684,�k�k��,3.5,�L
2019/06/30,15:30,0.714,0.999,0.685,1.238,0.880,0.423,0.720,0.684,�k�k��,3.7,��
2019/06/30,15:40,0.715,0.996,0.685,1.240,0.881,0.421,0.721,0.686,�k,3.8,��
2019/06/30,15:50,0.714,0.998,0.688,1.239,0.880,0.420,0.720,0.685,�k,4.0,��
2019/06/30,16:00,0.713,1.002,0.687,1.241,0.880,0.420,0.722,0.685,�k,3.1,��
2019/06/30,16:10,0.713,0.999,0.686,1.242,0.881,0.421,0.722,0.686,�k,3.4,��
2019/06/30,16:20,0.714,0.999,0.684,1.243,0.881,0.420,0.720,0.688,�k,3.2,��
2019/06/30,16:30,0.714,1.001,0.685,1.244,0.881,0.421,0.721,0.687,�k,3.2,�L
2019/06/30,16:40,0.714,0.999,0.686,1.243,0.882,0.420,0.723,0.688,�k,3.2,��
2019/06/30,16:50,0.713,1.000,0.684,1.245,0.883,0.420,0.723,0.687,�k,5.3,��
2019/06/30,17:00,0.715,1.002,0.685,1.247,0.883,0.420,0.721,0.687,�k,5.7,��
2019/06/30,17:10,0.715,1.000,0.685,1.246,0.885,0.420,0.723,0.685,�k,6.1,��
2019/06/30,17:20,0.715,1.003,0.685,1.248,0.885,0.420,0.721,0.686,�k,6.3,��
2019/06/30,17:30,0.714,1.003,0.685,1.246,0.885,0.419,0.723,0.686,�k,5.9,��
2019/06/30,17:40,0.714,1.003,0.686,1.247,0.887,0.418,0.722,0.688,�k,5.2,��
2019/06/30,17:50,0.715,1.002,0.685,1.246,0.888,0.419,0.722,0.688,�k,5.1,��
2019/06/30,18:00,0.715,1.002,0.686,1.247,0.886,0.419,0.723,0.688,�k,5.1,��
2019/06/30,18:10,0.714,1.004,0.686,1.249,0.887,0.416,0.723,0.688,�k,5.0,��
2019/06/30,18:20,0.715,1.004,0.686,1.250,0.889,0.418,0.723,0.687,�k,4.9,��
2019/06/30,18:30,0.714,1.000,0.685,1.251,0.887,0.417,0.723,0.688,�k,4.4,��
2019/06/30,18:40,0.716,1.004,0.686,1.251,0.888,0.418,0.724,0.688,�k�k��,3.8,��
2019/06/30,18:50,0.715,1.004,0.687,1.252,0.886,0.418,0.722,0.689,�k�k��,3.9,��
2019/06/30,19:00,0.714,1.003,0.687,1.251,0.892,0.418,0.724,0.687,�k�k��,3.9,��
2019/06/30,19:10,0.714,1.003,0.687,1.251,0.890,0.419,0.723,0.688,�k��,2.2,��
2019/06/30,19:20,0.714,1.004,0.688,1.252,0.891,0.417,0.724,0.688,�k�k��,1.9,��
2019/06/30,19:30,0.717,1.004,0.690,1.251,0.890,0.419,0.722,0.689,�k�k��,1.7,��
2019/06/30,19:40,0.715,1.006,0.687,1.252,0.892,0.418,0.723,0.688,�k�k��,2.3,��
2019/06/30,19:50,0.716,1.004,0.687,1.252,0.891,0.419,0.724,0.687,�k,1.1,��
2019/06/30,20:00,0.714,1.007,0.687,1.252,0.890,0.419,0.722,0.689,�k,1.2,��
2019/06/30,20:10,0.716,1.005,0.687,1.251,0.892,0.420,0.723,0.689,�k,1.4,��
2019/06/30,20:20,0.716,1.006,0.688,1.250,0.894,0.421,0.722,0.688,�k,0.9,��
2019/06/30,20:30,0.716,1.006,0.688,1.251,0.892,0.418,0.726,0.689,�k��,1.2,��
2019/06/30,20:40,0.719,1.007,0.685,1.252,0.894,0.420,0.723,0.690,�k�k��,0.9,��
2019/06/30,20:50,0.718,1.007,0.687,1.252,0.891,0.420,0.723,0.690,-,CALM,��
2019/06/30,21:00,0.718,1.005,0.688,1.254,0.894,0.419,0.724,0.689,-,CALM,��
2019/06/30,21:10,0.719,1.009,0.689,1.252,0.894,0.420,0.724,0.690,-,CALM,��
2019/06/30,21:20,0.718,1.007,0.689,1.254,0.892,0.419,0.722,0.691,���쓌,0.6,��
2019/06/30,21:30,0.719,1.007,0.689,1.252,0.892,0.422,0.724,0.694,��,0.6,��
2019/06/30,21:40,0.718,1.008,0.689,1.254,0.891,0.420,0.723,0.690,�쐼,0.6,��
2019/06/30,21:50,0.718,1.007,0.689,1.254,0.892,0.418,0.724,0.691,��,0.9,��
2019/06/30,22:00,0.719,1.006,0.688,1.254,0.894,0.418,0.724,0.690,-,CALM,��
2019/06/30,22:10,0.717,1.006,0.688,1.252,0.895,0.419,0.723,0.689,�k�k��,0.9,��
2019/06/30,22:20,0.717,1.007,0.689,1.253,0.894,0.418,0.725,0.691,�k,0.6,��
2019/06/30,22:30,0.719,1.007,0.690,1.252,0.895,0.420,0.723,0.691,�k,1.5,��
2019/06/30,22:40,0.718,1.007,0.687,1.253,0.894,0.420,0.724,0.690,�k,1.7,��
2019/06/30,22:50,0.719,1.008,0.690,1.254,0.898,0.419,0.724,0.691,�k�k��,0.9,��
2019/06/30,23:00,0.720,1.010,0.688,1.255,0.894,0.419,0.724,0.690,�k,0.6,��
2019/06/30,23:10,0.719,1.009,0.690,1.256,0.897,0.419,0.725,0.691,-,CALM,��
2019/06/30,23:20,0.718,1.008,0.689,1.251,0.895,0.420,0.724,0.690,���쓌,0.6,��
2019/06/30,23:30,0.719,1.006,0.689,1.254,0.896,0.419,0.724,0.691,�k��,0.9,��
2019/06/30,23:40,0.718,1.006,0.690,1.255,0.895,0.420,0.725,0.690,���k��,0.6,��
2019/06/30,23:50,0.718,1.009,0.689,1.255,0.900,0.419,0.723,0.691,�k��,1.2,��
